Westview, KY (40178)

2:17 PM CST on February 14, 2016 (GMT -0600)
Eveleigh Road | | Change Station
CLOSE
Current Station
Personal Weather Station
Location: Leitchfield, KY
Elevation: 670 ft
Nearby Weather Stations
Active Advisory: Winter Storm Warning Active Notice: Public Information Statement

Elev 670 ft 37.58 °N, 86.34 °W | Updated 4 seconds ago

Snow
Snow
23.7 °F
Feels Like 24 °F
N
2.2
Wind Variable Wind from SE
Gusts 3.8 mph

Today
High -- | Low -- °F
--% Chance of Precip.
Yesterday
High -- | Low -- °F
Precip. -- in
Pressure 30.13 in
Visibility 0.5 miles
Clouds
Windchill 24 °F
Dew Point 22 °F
Humidity 95%
Rainfall 0.00 in
Snow Depth Not available.
6:36 AM 5:23 PM
Waxing Crescent, 45% visible
SPECI KFTK 142008Z AUTO 10011KT 1/2SM R18/3000FT FZFG -SN VV013 M06/M08 A3013 RMK AO2 VIS 1/2V1 CIG 013V017
Pressure 30.13 in
Visibility 0.5 miles
Clouds
Windchill 24 °F
Dew Point 22 °F
Humidity 95%
Rainfall 0.00 in
Snow Depth Not available.
6:36 AM 5:23 PM
Waxing Crescent, 45% visible
SPECI KFTK 142008Z AUTO 10011KT 1/2SM R18/3000FT FZFG -SN VV013 M06/M08 A3013 RMK AO2 VIS 1/2V1 CIG 013V017

10-Day Weather Forecast

Almanac

Astronomy

Feb. 14, 2016 Rise Set
Actual Time
Civil Twilight
Nautical Twilight
Astronomical Twilight
Moon
Length of Visible Light
Length of Day
Tomorrow will be .
, % of the Moon is Illuminated

Today's Extremes

State Highs State Lows

Community

WunderPhotos

Upload Photos

1,892,880 photos uploaded!

WunderBlog® & News

Nearby

Air Quality

  Air Quality AQ Index Pollutant
Not available.

Snow Depth

Station Depth Elevation

Earthquake Activity

City Distance Mag. Time & Date
Minimum magnitude displayed is 2.5.

Coastal Water Temperatures

Place Temperature

Stations

Nearby Weather Stations

Station Location Temp. Windchill Dew Point Humidity Wind Precip. Elev Updated Type
                   

Watches & Warnings

Winter Storm Warning
Issued: 10:45 AM CST Feb. 14, 2016 – National Weather Service

... Winter Storm Warning remains in effect until 10 am EST /9 am
CST/ Monday...

* accumulations... 3 to 5 inches... with locally higher amounts.

* Timing... moderate to occasionally heavy snow will spread from
west to east early this afternoon. Precipitation will taper to
drizzle this evening.

* Main impact... snowfall rates of 1 to 2 inches per hour will be
possible at times this afternoon. Travel will be hazardous as
even treated primary roads will become snow covered.

* Other impacts... there is a chance of a brief period of
freezing drizzle late Sunday night before transitioning to
drizzle or rain Monday morning.

Precautionary/preparedness actions...

A Winter Storm Warning for snow means severe winter weather
conditions are expected or occurring. Significant amounts of snow
are forecast that will make travel dangerous.